KUIPER-00560

导读

KUIPER-00560(NORAD编号69623)是亚马逊“柯伊伯计划”低轨通信卫星星座的组网卫星,属于该计划2025年发射批次的在轨卫星,运行于约630公里高度的近圆低轨道,轨道倾角约51.9度,轨道周期约97分钟。 该卫星承担全球宽带通信功能,重点覆盖偏远乡村、海上等网络接入不足区域,可与亚马逊AWS云服务深度融合,提供低延迟、高带宽的通信服务,同时支持应急通信、政企专网等场景需求。截至2026年6月该卫星处于正常在轨运行状态,是柯伊伯星座推进全球组网部署的组成节点,未来将配合星座整体为全球数字化连接提供支撑。

基本信息
目录编号:
69623
目录名称:
KUIPER-00560
国际标识:
2026-140AH
轨道中心:
EARTH
卫星名称:
KUIPER-00560
卫星全名:
KUIPER-00560
卫星状态:
在轨 (已飞行70 天)
发射日期:
2026-06-17 UTC
国别 :
美国 (US)
星等 :
--
轨道信息
数据来源 国际轨道数据
星历时间: 2026-08-26T06:20:16+0800
12小时前
查看轨道信息
半长轴: 6833.533km
偏心率: 0.0007001
轨道倾角: 51.879°
近地点辐角 106.499°
升交点赤经 61.431°
平近点角 253.677°
近地点: 450.611km
远地点: 460.181km
周期: 93.697分钟
每日圈数: 15.368619
详细信息
使用方式:
暂无
2D轨道图
3D轨道图
轨道高度分析图
轨道倾角分析图
轨道综合分析图
查看轨道综合分析图